Location: Glendale
(37.4556°N, 88.6714°W)
Time: 03:33:59
(UTC+00:00)

Cosmos 1092 Rocket - Pass Details

Date: 08 December 2019
Orbit: 953 x 996 km, 83.0° (Epoch: 25 January)

Event Time Altitude Azimuth Distance (km) Brightness Sun altitude
Rises 00:19:29 0° 194° (SSW) 3,696 7.4 -19.9°
Reaches altitude 10° 00:22:01 10° 197° (SSW) 2,748 6.7 -20.4°
Maximum altitude 00:28:16 64° 278° (W) 1,088 4.4 -21.6°
Drops below altitude 10° 00:34:32 10° 0° (N) 2,744 6.2 -22.8°
Sets 00:37:05 0° 4° (N) 3,689 6.9 -23.3°
